Location: Svitavy
(49.7500°N, 16.4667°E)
Time: 17:13:18
(UTC+01:00)

ISS - Pass Details

Date: 25 January 2020
Orbit: 415 x 422 km, 51.6° (Epoch: 26 February)

Event Time Altitude Azimuth Distance (km) Brightness Sun altitude
Rises 17:33:18 0° 228° (SW) 2,370 1.5 -9.2°
Reaches altitude 10° 17:35:28 10° 221° (SW) 1,507 0.1 -9.6°
Maximum altitude 17:38:39 40° 150° (SSE) 636 -3.0 -10.0°
Enters shadow 17:41:06 15° 84° (E) 1,224 -2.0 -10.4°
